Regional Weather Roundup
Issued by NWS

Home | Current Version | Previous Version | Text Only | Print | Product List | Glossary Off
Versions: 1 2 3 4 5 6 7 8 9 10 11 12 13 14 15 16 17 18 19 20 21 22 23 24 25 26 27 28 29 30 31 32 33 34 35 36 37 38 39 40 41 42 43 44 45 46 47 48 49 50

000
ASUS45 KTFX 221510
RWRMT
MONTANA REGIONAL WEATHER ROUNDUP
NATIONAL WEATHER SERVICE GREAT FALLS MT
800 AM MST WED FEB 22 2017

NOTE: "FAIR" INDICATES FEW OR NO CLOUDS BELOW 12000 FEET WITH NO
SIGNIFICANT WEATHER AND/OR OBSTRUCTIONS TO VISIBILITY.

MTZ001>007-043-221600-
WEST OF THE DIVIDE

CITY           SKY/WX    TMP DP  RH WIND       PRES   REMARKS
KALISPELL      MOCLDY    27  26  96 SW3       29.94R
MISSOULA       CLOUDY    31  30  96 CALM      29.97S
BUTTE          CLOUDY    27  24  89 CALM      29.89S
MULLAN PASS    SNOW      24  22  91 CALM      29.88R VSB 1/2
ANACONDA         N/A     28  27  93 CALM      29.91S
DEER LODGE       N/A     28  28 100 CALM      29.95R
EUREKA           N/A     28  28 100 CALM      29.97R VSB 0
HAMILTON         N/A     30  28  93 CALM        N/A
LIBBY            N/A     30  30 100 CALM      29.98S
PLAINS           N/A     31  26  81 CALM      29.99R
RONAN            N/A     33  30  89 SW1       30.00R
$$

MTZ008-052>055-221600-
SOUTHWEST MONTANA

CITY           SKY/WX    TMP DP  RH WIND       PRES   REMARKS
BOZEMAN        LGT SNOW  32  28  85 SW6       29.91R FOG     WCI  26
DILLON         CLOUDY    30  21  69 SW13      29.89R WCI  20
W YELLOWSTONE  MIX PCPN  25  19  80 CALM      29.90R
ENNIS          CLOUDY    32  19  59 S8        29.94S WCI  25
THREE FORKS      N/A     35 -51   2 CALM      29.90S
$$

MTZ009-010-012-014-046-048-049-054-221600-
EAST SLOPES AND CENTRAL MONTANA

CITY           SKY/WX    TMP DP  RH WIND       PRES   REMARKS
CUT BANK       CLOUDY    26  21  81 NW9       29.85R WCI  17
GREAT FALLS    CLOUDY    31  29  92 W5        29.86R
MALMSTROM AFB  FLURRIES  32  32  99 W3G16     29.88R
HELENA         CLOUDY    36  25  64 W12       29.89S WCI  28
AUGUSTA        CLOUDY    28  24  83 W13       29.84R WCI  18
BOWMANS CRNR   MOCLDY    29  25  86 S7        29.84R WCI  22
CHOTEAU          N/A     30  25  80 W5        29.87R
CONRAD           N/A     28  28 100 MISG      29.89R
POWER          MOCLDY    29  29  99 W3        29.85R
RAYNESFORD     CLOUDY    32  29  87 W7        29.86R WCI  26
ULM            CLOUDY    32  28  85 MISG      29.86S
$$

MTZ011-013-016-021-045-047-050-051-221600-
NORTH CENTRAL MONTANA

CITY           SKY/WX    TMP DP  RH WIND       PRES   REMARKS
HAVRE          LGT SNOW  31  30  96 E9        29.90R FOG     WCI  23
LEWISTOWN      LGT SNOW  30  29  96 W9        29.85R FOG     WCI  22
N BAR RANCH    LGT SNOW  30  27  86 NW13      29.85R WCI  20
CHINOOK          N/A     30  30 100 CALM      29.92R
DENTON         LGT SNOW  31  31  99 N16       29.84R WCI  20
FORT BENTON      N/A     34  34 100 CALM      29.89S
GEYSER         LGT SNOW  32  30  93 W13       29.85R WCI  22
GRASS RANGE    FLURRIES  32  31  96 W3        29.82R
JUDITH GAP     LGT SNOW  29  28  97 N7        29.84R VSB 3/4 WCI  22
ROY            LGT SNOW  29  29  99 MISG      29.86R FOG
STANFORD       LGT SNOW  31  30  99 NW8       29.84R WCI  23
WINIFRED       LGT SNOW  30 N/A N/A NW7       29.86R FOG     WCI  23
$$

MTZ017>020-022>027-061-062-221600-
NORTHEAST MONTANA

CITY           SKY/WX    TMP DP  RH WIND       PRES   REMARKS
GLASGOW        LGT SNOW  31  29  92 NW6       29.89R VSB 1   WCI  25
JORDAN           N/A     31  28  89 N6        29.87R WCI  25
SIDNEY         FLURRIES  31  30  96 N12       29.85R WCI  22
WOLF POINT     MIX PCPN  32  28  85 NE7       29.89R FOG     WCI  26
PLENTYWOOD       N/A     28  25  86 N12       29.87R WCI  18
POPLAR           N/A     28  27  93 N8        29.89R WCI  20
SCOBEY           N/A     26  17  68 N6        29.86R WCI  19
$$

MTZ028>42-056>058-221600-
SOUTHCENTRAL AND SOUTHEAST MONTANA

CITY           SKY/WX    TMP DP  RH WIND       PRES   REMARKS
BAKER          CLOUDY    31  31 100 NW13      29.77R WCI  21
BILLINGS       CLOUDY    37  28  70 N12       29.86R WCI  29
LIVINGSTON     CLOUDY    32  26  78 SW13      29.87R WCI  22
MILES CITY     LGT SNOW  33  32  96 N10       29.83R FOG     WCI  25
BIG TIMBER     PTCLDY    34  25  69 W21       29.87R WCI  22
EKALAKA          N/A     35  31  86 W12       29.75R WCI  27
FORSYTH          N/A     32  32 100 NW7       29.85R VSB 3/4 WCI  26
HARLOWTON      FLURRIES  33  26  76 NW14      29.85R WCI  23
LAUREL           N/A     38  24  57 NW6       29.85R
$$

REGIONAL REPORTS...DAKOTAS

CITY           SKY/WX    TMP DP  RH WIND       PRES   REMARKS
WILLISTON      CLOUDY    31  27  85 N14       29.85R WCI  21
MINOT          CLOUDY    32  29  88 N17       29.79R WCI  21
DICKINSON      CLOUDY    30  28  92 NE14      29.73R FOG     WCI  19
BEACH            N/A    N/A N/A N/A MISG        N/A
CROSBY         CLOUDY    30  28  93 NE12      29.87R WCI  21
TIOGA          CLOUDY    28  28 100 NE13      29.83R WCI  18
WATFORD CITY   CLOUDY    30  30 100 N6        29.82R FOG     WCI  24
BISMARCK       LGT SNOW  34  33  96 N6        29.74R FOG     WCI  29
GRAND FORKS    LGT SNOW  34  30  85 N17       29.74S FOG     WCI  23
FARGO          FOG       33  33 100 N8        29.68S VSB 1/4 WCI  26
BUFFALO SD       N/A     36  34  92 NW8       29.67R WCI  30
RAPID CITY     MOSUNNY   47  28  47 W20       29.75R
$$

REGIONAL REPORTS...WYOMING/IDAHO/WASHINGTON

CITY           SKY/WX    TMP DP  RH WIND       PRES   REMARKS
GILLETTE       CLOUDY    37  24  59 W8        29.81R WCI  31
SHERIDAN       CLOUDY    37  23  56 VRB5      29.83R
BUFFALO WY     CLOUDY    36  18  48 N10       29.82R WCI  28
CODY           CLEAR     36  16  44 W8        29.86R WCI  30
YELLOWSTONE LA   N/A     18  15  88 VRB3      29.88S
IDAHO FALLS    PTCLDY    30  27  88 SW9       29.97R WCI  22
SALMON         CLOUDY    30  28  93 CALM      29.94S
BOISE          MOCLDY    31  26  82 E6        30.00F WCI  25
SPOKANE        CLOUDY    32  31  96 SW3       30.02R FOG
$$

REGIONAL REPORTS...ALBERTA

CITY           SKY/WX    TMP DP  RH WIND       PRES   REMARKS
EDMONTON       MOCLDY    23  18  80 W2        29.96S
CALGARY        CLOUDY    25  21  86 N13       29.91R FOG     WCI  13
LETHBRIDGE     CLOUDY    28  28 100 NW13      29.90R WCI  18
MEDICINE HAT   CLOUDY    30  30 100 NE6       29.90R WCI  24
CARDSTON         N/A     27  25  93 N7          N/A  WCI  19
MILK RIVER       N/A     28  28 100 NW7         N/A  WCI  21
ONEFOUR          N/A     30  28  93 E7          N/A  WCI  23
$$

REGIONAL REPORTS...SASKATCHEWAN

CITY           SKY/WX    TMP DP  RH WIND       PRES   REMARKS
SWIFT CURRENT  CLOUDY    28  28 100 W5        29.88R
REGINA         MOCLDY    30  25  80 NW8       29.88R WCI  23
SASKATOON      MOCLDY    30  27  86 W5        29.90R
CYPRESS HILLS    N/A     23  19  86 W1          N/A
VAL MARIE        N/A     28  27  93 N3          N/A
ROCKGLEN         N/A     27  23  86 N5          N/A
ASSINIBOIA       N/A     23  19  86 N5          N/A
$$



USA.gov is the U.S. government's official web portal to all federal, state and local government web resources and services.